Weather observations for the past three days for
Decorah
Imperial (Metric)
Date Time (cdt) Wind (mph) Vis. (mi.) Weather Sky Cond. Temperature (ºF) Relative Humidity Wind Chill (°F) Heat Index (°F) Pressure Precipitation (in)
Air Dwpt 6 hour altimeter (in) sea level (mb) 1 hr 3 hr 6 hr
Max. Min.
17 10:30 NW 6 1.50 Light Rain SCT004 BKN022 OVC028 68 68 100% 29.87 0.0
17 10:15 Calm 3.00 Light Rain FEW005 OVC022 69.8 66.2 88% 29.87 0.0
17 09:55 N 5 10.00 Overcast OVC023 71.6 66.2 83% 29.86 0.0
17 09:35 N 7 10.00 Overcast OVC020 71.6 68 88% 29.86 0.0
17 09:15 N 9 G 18 10.00 Overcast BKN017 OVC025 71.6 68 88% 29.86 0.0
17 08:55 W 5 10.00 Overcast OVC029 77 73.4 89% 78 29.86 0.0
17 08:35 SW 6 10.00 Mostly Cloudy BKN031 77 71.6 83% 78 29.85 0.0
17 08:15 SW 8 G 14 10.00 Partly Cloudy FEW034 SCT050 SCT065 77 71.6 83% 78 29.84 0.0
17 07:55 SW 7 10.00 Overcast BKN050 OVC060 77 71.6 83% 78 29.83 0.0
17 07:35 S 7 G 13 10.00 Mostly Cloudy BKN060 BKN070 BKN095 77 71.6 83% 78 29.82 0.0
17 07:15 S 9 8.00 Mostly Cloudy BKN060 BKN095 75.2 71.6 89% 75 29.81 0.0
17 06:55 S 8 10.00 Fair CLR 75.2 71.6 89% 75 29.8 0.0
17 06:35 S 10 10.00 A Few Clouds FEW055 FEW090 75.2 71.6 89% 75 29.8 0.0
17 06:15 S 8 10.00 Mostly Cloudy SCT055 BKN065 BKN090 75.2 71.6 89% 75 29.8 0.0
17 05:55 S 7 G 15 10.00 Overcast BKN050 OVC055 75.2 71.6 89% 75 29.8 0.0
17 05:35 S 8 G 16 10.00 Overcast BKN050 OVC060 75.2 71.6 89% 75 29.79 0.0
17 05:15 S 7 G 15 10.00 Overcast BKN048 OVC060 75.2 71.6 89% 75 29.78 0.0
17 04:55 S 7 G 13 10.00 Overcast BKN045 OVC055 75.2 71.6 89% 75 29.78 0.0
17 04:35 S 9 10.00 Mostly Cloudy FEW036 BKN043 BKN049 75.2 71.6 89% 75 29.77 0.0
17 04:15 Vrbl 7 G 14 10.00 Overcast BKN041 BKN047 OVC060 77 71.6 83% 78 29.78 0.0
17 03:55 S 8 10.00 Overcast FEW035 BKN041 OVC055 77 71.6 83% 78 29.78 0.0
17 03:35 Vrbl 7 G 15 10.00 Overcast SCT035 SCT046 OVC060 77 71.6 83% 78 29.77 0.0
17 03:15 Vrbl 7 G 14 10.00 Overcast OVC060 77 71.6 83% 78 29.77 0.0
17 02:55 Vrbl 7 10.00 Overcast OVC055 77 71.6 83% 78 29.78 0.0
17 02:35 S 8 10.00 Overcast OVC055 77 71.6 83% 78 29.78 0.0
17 02:15 S 7 G 14 10.00 Overcast FEW037 FEW048 OVC055 77 71.6 83% 78 29.78 0.0
17 01:55 S 8 10.00 Overcast SCT038 BKN047 OVC055 77 71.6 83% 78 29.78 0.0
17 01:35 S 8 G 14 10.00 Overcast SCT039 OVC046 77 73.4 89% 78 29.78 0.0
17 01:15 S 9 10.00 Overcast BKN044 OVC055 77 73.4 89% 78 29.78 0.0
17 00:55 S 9 10.00 Overcast SCT048 OVC055 77 73.4 89% 78 29.79 0.0
17 00:35 S 8 10.00 Overcast BKN048 OVC055 77 73.4 89% 78 29.8 0.0
17 00:15 S 8 10.00 Mostly Cloudy BKN055 77 73.4 89% 78 29.8 0.0
16 23:55 S 8 G 15 10.00 Partly Cloudy SCT060 78.8 73.4 84% 82 29.8 0.0
16 23:35 S 8 G 16 10.00 Mostly Cloudy SCT050 BKN055 78.8 73.4 84% 82 29.79 0.0
16 23:15 S 8 10.00 Overcast BKN050 OVC055 78.8 73.4 84% 82 29.79 0.0
16 22:55 S 8 G 14 10.00 Overcast BKN050 OVC055 78.8 73.4 84% 82 29.78 0.0
16 22:35 S 8 G 15 10.00 Overcast FEW050 OVC055 78.8 73.4 84% 82 29.78 0.0
16 22:15 S 8 10.00 Overcast OVC055 78.8 73.4 84% 82 29.78 0.0
16 21:55 S 7 10.00 Overcast OVC050 78.8 73.4 84% 82 29.78 0.0
16 21:35 Vrbl 7 10.00 Overcast OVC050 78.8 73.4 84% 82 29.77 0.0
16 21:15 S 7 10.00 Mostly Cloudy BKN050 78.8 73.4 84% 82 29.76 0.0
16 20:55 S 8 10.00 Fair CLR 80.6 73.4 79% 85 29.75 0.0
16 20:35 S 9 G 17 10.00 Fair CLR 80.6 71.6 74% 85 29.74 0.0
16 20:15 S 9 G 18 10.00 Fair CLR 82.4 71.6 70% 87 29.74 0.0
16 19:55 S 7 G 17 10.00 Fair CLR 82.4 71.6 70% 87 29.73 0.0
16 19:35 S 8 G 15 10.00 Fair CLR 84.2 71.6 66% 90 29.73 0.0
16 19:15 S 9 10.00 Fair CLR 84.2 71.6 66% 90 29.72 0.0
16 18:55 S 12 G 18 10.00 Fair CLR 84.2 71.6 66% 90 29.72 0.0
16 18:35 S 8 10.00 Fair CLR 84.2 71.6 66% 90 29.72 0.0
16 18:15 S 7 G 18 10.00 Fair CLR 84.2 71.6 66% 90 29.71 0.0
16 17:55 SW 9 G 21 10.00 Fair CLR 86 69.8 59% 91 29.72 0.0
16 17:35 S 9 G 17 10.00 Fair CLR 84.2 71.6 66% 90 29.71 0.0
16 17:15 SW 9 G 20 10.00 Mostly Cloudy BKN049 BKN055 84.2 73.4 70% 91 29.72 0.0
16 16:55 Vrbl 7 G 14 10.00 Overcast BKN045 OVC050 84.2 71.6 66% 90 29.72 0.0
16 16:35 S 9 G 18 10.00 Overcast BKN043 OVC050 84.2 71.6 66% 90 29.72 0.0
16 16:15 SW 13 G 22 10.00 Mostly Cloudy SCT042 BKN049 86 71.6 62% 92 29.72 0.0
16 15:55 SW 15 G 21 10.00 Partly Cloudy SCT042 86 71.6 62% 92 29.71 0.0
16 15:35 S 9 G 21 10.00 Mostly Cloudy BKN044 84.2 71.6 66% 90 29.71 0.0
16 15:15 S 10 G 30 10.00 Partly Cloudy SCT043 86 73.4 66% 93 29.71 0.0
16 14:55 SW 12 G 21 10.00 Partly Cloudy SCT041 86 71.6 62% 92 29.71 0.0
16 14:35 SW 13 G 21 10.00 Partly Cloudy SCT041 86 73.4 66% 93 29.71 0.0
16 14:15 SW 14 G 22 10.00 A Few Clouds FEW039 FEW045 86 71.6 62% 92 29.72 0.0
16 13:55 SW 12 G 26 10.00 Fair CLR 84.2 71.6 66% 90 29.72 0.0
16 13:35 SW 12 G 25 10.00 A Few Clouds FEW038 FEW045 84.2 71.6 66% 90 29.72 0.0
16 13:15 SW 14 G 20 10.00 Mostly Cloudy SCT032 BKN041 84.2 73.4 70% 91 29.74 0.0
16 12:55 S 10 G 22 10.00 A Few Clouds FEW030 FEW034 FEW060 82.4 75.2 79% 89 29.75 0.0
16 12:35 S 13 G 21 9.00 A Few Clouds FEW032 FEW060 82.4 73.4 74% 88 29.75 0.0
16 12:15 SW 10 G 18 10.00 Fair CLR 80.6 73.4 79% 85 29.75 0.0
16 11:55 S 8 G 20 10.00 Fair CLR 80.6 73.4 79% 85 29.75 0.0
16 11:35 S 8 G 20 10.00 Fair CLR 77 73.4 89% 78 29.75 0.0
16 11:15 S 10 10.00 A Few Clouds FEW070 75.2 73.4 94% 74 29.75 0.0
16 10:55 S 9 10.00 Partly Cloudy SCT065 73.4 71.6 94% 29.76 0.0
16 10:35 S 8 G 15 10.00 Mostly Cloudy BKN065 71.6 69.8 94% 29.76 0.0
16 10:15 S 13 10.00 Partly Cloudy SCT060 SCT075 69.8 69.8 100% 29.75 0.0
16 09:55 S 10 G 18 10.00 Mostly Cloudy FEW060 BKN070 BKN085 68 68 100% 29.75 0.0
16 09:35 S 13 G 21 10.00 Mostly Cloudy SCT080 BKN110 68 68 100% 29.75 0.0
16 09:15 S 13 G 24 9.00 Light Rain FEW031 SCT045 BKN110 66.2 66.2 100% 29.75 0.0
16 08:55 S 14 G 20 3.00 Light Rain SCT036 BKN044 OVC055 66.2 66.2 100% 29.75 0.0 0.15
16 08:35 S 8 3.00 Rain FEW034 SCT041 BKN049 66.2 66.2 100% 29.8 0.0
16 08:15 S 5 4.00 Light Rain FEW027 FEW039 BKN047 66.2 66.2 100% 29.81 0.0
16 07:55 S 7 7.00 Mostly Cloudy BKN028 BKN034 BKN043 66.2 66.2 100% 29.81 0.0
16 07:35 Vrbl 5 9.00 Overcast SCT029 OVC035 66.2 66.2 100% 29.81 0.0
16 07:15 S 6 G 13 10.00 Overcast SCT035 BKN042 OVC080 66.2 66.2 100% 29.79 0.0
16 06:55 S 9 9.00 Overcast FEW006 BKN042 OVC075 66.2 66.2 100% 29.78 0.0 0.08
16 06:35 S 8 5.00 Light Rain FEW009 BKN039 OVC070 66.2 66.2 100% 29.78 0.0
16 06:15 Vrbl 7 4.00 Light Rain SCT036 BKN042 OVC050 66.2 66.2 100% 29.77 0.0
16 05:55 S 9 G 15 0.00 Light Rain NULL 66.2 66.2 100% 29.76 0.0 0.08
16 05:35 S 10 G 21 4.00 Light Rain BKN038 BKN047 OVC060 66.2 66.2 100% 29.76 0.0
16 05:15 S 10 G 20 5.00 Light Rain BKN036 BKN048 OVC080 68 68 100% 29.78 0.0
16 04:55 S 8 G 22 9.00 Mostly Cloudy FEW032 SCT045 BKN060 68 66.2 94% 29.79 0.0
16 04:35 S 9 G 17 10.00 Mostly Cloudy FEW024 SCT065 BKN075 71.6 62.6 73% 29.77 0.0
16 04:15 S 14 G 21 10.00 Mostly Cloudy FEW039 SCT070 BKN075 71.6 60.8 69% 29.78 0.0
16 03:55 S 9 G 17 10.00 Mostly Cloudy FEW031 SCT047 BKN060 71.6 59 65% 29.78 0.0
16 03:35 S 8 G 16 10.00 Overcast BKN060 OVC065 71.6 59 65% 29.78 0.0
16 03:15 S 9 G 15 10.00 Mostly Cloudy FEW050 BKN060 BKN120 71.6 59 65% 29.76 0.0
16 02:55 S 10 10.00 Partly Cloudy SCT055 SCT065 SCT070 73.4 57.2 57% 29.76 0.0
16 02:35 S 13 G 24 10.00 Partly Cloudy SCT060 SCT070 73.4 57.2 57% 29.77 0.0
16 02:15 S 12 G 23 10.00 Fair CLR 75.2 57.2 54% 78 29.79 0.0
16 01:55 S 14 G 28 10.00 Partly Cloudy SCT047 SCT055 75.2 57.2 54% 78 29.79 0.0
16 01:35 S 16 G 26 10.00 Overcast BKN048 OVC055 75.2 57.2 54% 78 29.78 0.0
16 01:15 S 13 G 22 10.00 Overcast OVC048 75.2 57.2 54% 78 29.79 0.0
16 00:55 S 13 G 18 10.00 Overcast BKN050 OVC060 75.2 57.2 54% 78 29.79 0.0
16 00:35 S 13 G 21 10.00 Overcast BKN050 OVC060 75.2 59 57% 78 29.8 0.0
16 00:15 S 13 G 25 10.00 Overcast BKN050 OVC060 75.2 59 57% 78 29.8 0.0
15 23:55 S 9 G 17 10.00 Overcast SCT050 BKN070 OVC075 75.2 59 57% 78 29.82 0.0
15 23:35 S 12 G 20 10.00 Overcast FEW048 SCT060 OVC075 73.4 59 61% 29.81 0.0
15 23:15 S 12 G 20 10.00 Overcast SCT055 BKN065 OVC075 75.2 59 57% 78 29.82 0.0
15 22:55 S 12 10.00 Overcast BKN055 OVC070 73.4 59 61% 29.82 0.0
15 22:35 S 10 10.00 Overcast FEW048 BKN055 OVC070 71.6 59 65% 29.82 0.0
15 22:15 S 9 G 16 10.00 Overcast OVC055 71.6 59 65% 29.82 0.0
15 21:55 S 9 G 15 10.00 Overcast SCT049 OVC060 71.6 59 65% 29.82 0.0
15 21:35 SE 10 G 17 10.00 Overcast BKN050 OVC060 71.6 59 65% 29.82 0.0
15 21:15 SE 9 10.00 Mostly Cloudy BKN055 BKN070 BKN085 71.6 59 65% 29.82 0.0
15 20:55 SE 8 G 18 10.00 Mostly Cloudy SCT060 BKN075 BKN090 73.4 59 61% 29.82 0.0
15 20:35 SE 8 G 17 10.00 Overcast BKN060 OVC075 73.4 57.2 57% 29.83 0.0
15 20:15 SE 9 G 16 10.00 Mostly Cloudy SCT055 BKN075 73.4 57.2 57% 29.83 0.0
15 19:55 SE 8 G 15 10.00 Partly Cloudy SCT070 SCT085 73.4 57.2 57% 29.85 0.0
15 19:35 SE 12 G 20 10.00 Mostly Cloudy BKN080 BKN090 75.2 55.4 50% 78 29.85 0.0
15 19:15 S 10 G 21 10.00 Mostly Cloudy BKN080 75.2 55.4 50% 78 29.86 0.0
15 18:55 S 10 G 20 0.00 Mostly Cloudy BKN075 BKN085 75.2 57.2 54% 78 29.87 0.0
15 18:35 S 9 G 22 10.00 Mostly Cloudy BKN075 75.2 55.4 50% 78 29.88 0.0
15 18:15 S 13 G 20 10.00 Overcast OVC070 75.2 55.4 50% 78 29.88 0.0
15 17:55 S 13 G 21 10.00 Mostly Cloudy BKN065 BKN080 BKN110 77 53.6 44% 78 29.88 0.0
15 17:35 S 9 G 21 10.00 Mostly Cloudy BKN070 BKN100 77 55.4 47% 79 29.88 0.0
15 17:15 SE 9 G 21 10.00 Partly Cloudy FEW070 SCT110 78.8 55.4 45% 79 29.89 0.0
15 16:55 S 12 G 21 10.00 A Few Clouds FEW110 77 55.4 47% 79 29.89 0.0
15 16:35 S 12 G 21 10.00 A Few Clouds FEW120 77 57.2 51% 79 29.91 0.0
Date Time (cdt) Wind (mph) Vis. (mi.) Weather Sky Cond. Air Dwpt Max. Min. Relative Humidity Wind Chill (°F) Heat Index (°F) altimeter (in) sea level (mb) 1 hr 3 hr 6 hr
6 hour
Temperature (ºF) Pressure Precipitation (in)